Regional Weather Roundup
Issued by NWS Northern Indiana

Home | Current Version | Previous Version | Text Only | Print | Product List | Glossary On
Versions: 1 2 3 4 5 6 7 8 9 10 11 12 13 14 15 16 17 18 19 20 21 22 23 24 25 26 27 28 29 30 31 32 33 34 35 36 37 38 39 40 41 42 43 44 45 46 47 48 49 50
000
ASUS43 KIWX 030610
RWRIWX

KIWX WEATHER ROUNDUP
NATIONAL WEATHER SERVICE NORTHERN INDIANA
200 AM EDT FRI JUL 03 2015

NOTE: "FAIR" INDICATES FEW OR NO CLOUDS BELOW 12,000 FEET WITH NO
SIGNIFICANT WEATHER AND/OR OBSTRUCTIONS TO VISIBILITY.

* THESE STATIONS ARE NOT UNDER NWS QUALITY CONTROL. THEY ALSO MAY NOT
  REPORT WEATHER SUCH AS PRECIPITATION OR FOG.

INZ001>027-030700-
NORTHERN INDIANA

CITY           SKY/WX    TMP DP  RH WIND       PRES   REMARKS
GARY*          PTCLDY    62  59  91 N6        29.98F
VALPARAISO     MOCLDY    58  54  86 NE3       29.98F
6HR MIN TEMP:  57; 6HR MAX TEMP:  67;

MICHIGAN CITY* PTCLDY    54  54 100 CALM      29.99S
LAPORTE*       PTCLDY    60  56  84 NE3       29.99S
6HR MIN TEMP:  60; 6HR MAX TEMP:  69;

KNOX*          PTCLDY    55  55 100 N3        29.97S
SOUTH BEND     PTCLDY    58  54  86 N3        30.00R
6HR MIN TEMP:  58; 6HR MAX TEMP:  72;

GOSHEN         PTCLDY    61  55  81 NE7       29.98S
6HR MIN TEMP:  60; 6HR MAX TEMP:  72;

MONTICELLO*    CLOUDY    64  59  81 NE6       29.95S
6HR MIN TEMP:  64; 6HR MAX TEMP:  74;

LOGANSPORT*    PTCLDY    63  54  72 NE5       29.96S
ROCHESTER*     CLEAR     63  57  82 CALM      29.98R
WARSAW*          N/A     55  54  94 CALM      29.99R
ANGOLA*          N/A     57  54  88 CALM      30.00R
FORT WAYNE     PTCLDY    60  54  80 E6        29.98S
6HR MIN TEMP:  59; 6HR MAX TEMP:  72;

HUNTINGTON*    CLEAR     60  55  82 E5        29.97S
6HR MIN TEMP:  60; 6HR MAX TEMP:  71;

PERU/GRISSOM   CLEAR     63  56  77 E5        29.95S
6HR MIN TEMP:  63; 6HR MAX TEMP:  73;

MARION*        MOCLDY    62  54  74 E8        29.96F
6HR MIN TEMP:  52; 6HR MAX TEMP:  78; 6HR PCP:  0.01;


$$
INZ028>050-030700-
CENTRAL INDIANA

CITY           SKY/WX    TMP DP  RH WIND       PRES   REMARKS
LAFAYETTE      PTCLDY    65  58  78 NE10      29.93S
6HR MIN TEMP:  65; 6HR MAX TEMP:  73;

KOKOMO*        CLOUDY    63  55  77 E9        29.95S
6HR MIN TEMP:  63; 6HR MAX TEMP:  72;

MUNCIE*        PTCLDY    64  57  78 E8        29.95S
6HR MIN TEMP:  64; 6HR MAX TEMP:  74;

INDIANAPOLIS   CLOUDY    70  60  70 NE13      29.89S
6HR MIN TEMP:  70; 6HR MAX TEMP:  77;


$$
MIZ043>046-050>051-056>058-064>065-071>073-077>080-030700-
SOUTHWEST LOWER MICHIGAN

CITY           SKY/WX    TMP DP  RH WIND       PRES   REMARKS
BATTLE CREEK   CLEAR     61  50  67 NE6       30.01S
6HR MIN TEMP:  61; 6HR MAX TEMP:  72;

BENTON HARBOR  PTCLDY    57  52  83 E5        29.99S
6HR MIN TEMP:  53; 6HR MAX TEMP:  62;

COLDWATER*     PTCLDY    56  52  85 NE3       30.00S
6HR MIN TEMP:  56; 6HR MAX TEMP:  69;

HILLSDALE*     PTCLDY    56  56  99 NE3       30.01S
6HR MIN TEMP:  56; 6HR MAX TEMP:  70;

HOLLAND        CLEAR     58  51  78 E3        30.01F
6HR MIN TEMP:  56; 6HR MAX TEMP:  70;

GRAND RAPIDS   CLEAR     56  49  77 CALM      30.01F
6HR MIN TEMP:  56; 6HR MAX TEMP:  69;

KALAMAZOO      CLEAR     59  51  75 NE3       30.01S
6HR MIN TEMP:  59; 6HR MAX TEMP:  72;

STURGIS*       PTCLDY    57  54  88 CALM      30.00R
THREE RIVERS*  FAIR      59  52  78 NE3       30.01S
6HR MIN TEMP:  59; 6HR MAX TEMP:  71;


$$
OHZ001>008-015>018-024>025-030700-
NORTHWEST OHIO

CITY           SKY/WX    TMP DP  RH WIND       PRES   REMARKS
DEFIANCE       MOCLDY    61  55  81 NE3       29.99S
6HR MIN TEMP:  61; 6HR MAX TEMP:  71;

FINDLAY        PTCLDY    62  54  74 E9        29.97F
6HR MIN TEMP:  62; 6HR MAX TEMP:  70;

TOLEDO EXPRESS PTCLDY    56  55  97 CALM      29.99F
6HR MIN TEMP:  56; 6HR MAX TEMP:  70;

TOLEDO METCALF PTCLDY    61  55  81 NE6       29.99F
6HR MIN TEMP:  60; 6HR MAX TEMP:  70;

LIMA           CLOUDY    60  54  80 NE6       29.98R
6HR MIN TEMP:  59; 6HR MAX TEMP:  69;


$$
AND FOR LAKE MICHIGAN COASTAL AND OPEN LAKE BUOY OBSERVATIONS

STATION/POSITION TEMP    WIND        PRES    VSBY  WAVE
                 AIR SEA DIR/SP/G                  HT/PER
                 (F)     (DEG/KT/KT) (MB)    (MI)  (FT/S)
CALUMET HARBOR    60     340/  4/  5   N/A
MICHIGAN CITY     59      30/ 10/ 11   N/A
BURNS HARBOR      62      70/  8/ 10 1016.3R
SAINT JOSEPH      59      10/  2/  4   N/A
4 MI NW BRIDGMAN  61 61                N/A           2/ 4
MICHIGAN CITY     61 62   80/  8/ 10   N/A           3/ 5

$$
&&


USA.gov is the U.S. government's official web portal to all federal, state and local government web resources and services.